DW1549 Fauske NO current weather conditions

sailwx.info

Wind from 119 at 6 knots gusting 12

Air temperature 13.3° C
Dewpoint 11.6° C

Last reported at 2015-Jul-02 15:48 UTC.
Time now 2015-Jul-02 16:36 UTC

Location: N 67°16' E 015°25'.
View on Google Maps.

See reports from other nearby stations

  
Tides and Currents Weather Stations Pressure Air Temp Water Temp Dewpoint Dewpoint Depression Visibility Wind Speed Wind Dir Waves Ship Positions
date/time (UTC)wind fromknots sea level pressurealtimeterstation pressurevisibilityair tempwater tempwave heightnotes
2015-Jul-02 15:48 119 6 gusting 12 13.3
2015-Jul-02 15:38 119 7 gusting 12 13.3
2015-Jul-02 15:28 132 8 gusting 13 13.3
2015-Jul-02 15:18 116 6 gusting 11 13.3
2015-Jul-02 15:08 121 5 gusting 10 13.3
2015-Jul-02 14:58 122 5 gusting 11 13.3
2015-Jul-02 14:48 107 4 gusting 12 12.8
2015-Jul-02 14:38 112 5 gusting 13 12.8
2015-Jul-02 14:28 120 6 gusting 10 12.8
2015-Jul-02 14:18 135 4 gusting 7 12.8
2015-Jul-02 14:08 117 2 gusting 7 12.8
2015-Jul-02 13:58 089 1 gusting 7 12.8
2015-Jul-02 13:48 108 12.8
2015-Jul-02 13:38 108 12.8
2015-Jul-02 13:28 108 13.3
2015-Jul-02 13:18 109 2 gusting 7 12.8
2015-Jul-02 13:08 103 1 gusting 7 12.8
2015-Jul-02 12:58 126 3 gusting 7 12.8
2015-Jul-02 12:48 132 0 gusting 8 12.8
2015-Jul-02 12:38 131 2 gusting 6 12.8
2015-Jul-02 12:28 153 12.8
2015-Jul-02 12:18 134 2 gusting 10 12.8
2015-Jul-02 12:08 114 5 gusting 13 12.8
2015-Jul-02 11:58 132 6 gusting 12 12.8
2015-Jul-02 11:48 118 6 gusting 13 12.2
2015-Jul-02 11:38 130 6 gusting 10 12.8
2015-Jul-02 11:28 115 6 gusting 10 12.8
2015-Jul-02 11:18 137 3 gusting 11 12.8
2015-Jul-02 11:08 114 2 gusting 10 12.8
2015-Jul-02 10:58 099 4 gusting 10 12.2
2015-Jul-02 10:48 118 4 gusting 11 12.2
2015-Jul-02 10:38 116 6 gusting 11 12.2
2015-Jul-02 10:28 107 12.8
2015-Jul-02 10:18 124 1 gusting 10 12.2
2015-Jul-02 10:08 112 5 gusting 8 11.7
2015-Jul-02 09:58 118 11.7
2015-Jul-02 09:48 120 2 gusting 8 11.7
2015-Jul-02 09:38 102 2 gusting 10 11.7
2015-Jul-02 09:28 099 3 gusting 7 11.7
2015-Jul-02 09:18 122 1 gusting 8 11.7
2015-Jul-02 09:08 121 5 gusting 13 11.7
2015-Jul-02 08:58 120 6 gusting 10 11.1
2015-Jul-02 08:48 140 3 gusting 10 11.1
2015-Jul-02 08:38 116 2 gusting 6 11.1
2015-Jul-02 08:28 112 4 gusting 6 11.1
2015-Jul-02 08:18 104 2 gusting 10 11.1
2015-Jul-02 08:08 121 4 gusting 10 11.1
2015-Jul-02 07:58 132 5 gusting 10 11.7
2015-Jul-02 07:48 139 5 gusting 11 11.7
2015-Jul-02 07:38 144 6 gusting 10 11.7
2015-Jul-02 07:28 136 4 gusting 8 11.7
2015-Jul-02 07:18 132 7 gusting 11 11.7
2015-Jul-02 07:08 082 0 gusting 6 11.7
2015-Jul-02 06:58 132 0 gusting 4 11.7
2015-Jul-02 06:48 132 11.7
2015-Jul-02 06:38 132 11.7
2015-Jul-02 06:28 132 11.7
2015-Jul-02 06:18 132 11.7
2015-Jul-02 06:08 132 11.7
2015-Jul-02 05:58 132 11.7
2015-Jul-02 05:48 132 11.1
2015-Jul-02 05:38 132 1 gusting 2 11.1
2015-Jul-02 05:28 132 11.1
2015-Jul-02 05:18 132 11.1
2015-Jul-02 05:08 134 1 gusting 5 11.1
2015-Jul-02 04:58 157 11.1
2015-Jul-02 04:48 157 11.1
2015-Jul-02 04:38 157 11.1
2015-Jul-02 04:28 157 11.1
2015-Jul-02 04:18 157 11.1
2015-Jul-02 04:08 157 11.1
2015-Jul-02 03:58 157 11.1
2015-Jul-02 03:48 157 11.1
2015-Jul-02 03:38 157 11.1
2015-Jul-02 03:28 157 11.1
2015-Jul-02 03:18 157 11.1
2015-Jul-02 03:08 157 11.1
2015-Jul-02 02:58 157 11.1
2015-Jul-02 02:48 157 11.1
2015-Jul-02 02:38 157 11.1
2015-Jul-02 02:28 157 11.1
2015-Jul-02 02:18 157 11.1
2015-Jul-02 02:08 157 0 gusting 2 11.1
2015-Jul-02 01:58 157 11.1
2015-Jul-02 01:48 157 1 gusting 4 11.7
2015-Jul-02 01:38 157 2 gusting 5 11.7
2015-Jul-02 01:28 167 2 gusting 6 11.1
2015-Jul-02 01:18 203 2 gusting 5 11.1
2015-Jul-02 01:08 204 2 gusting 5 11.1
2015-Jul-02 00:58 205 2 gusting 4 11.1
2015-Jul-02 00:48 207 2 gusting 6 11.7
2015-Jul-02 00:38 222 0 gusting 2 11.7
2015-Jul-02 00:28 222 0 gusting 4 11.7
2015-Jul-02 00:18 222 0 gusting 2 11.7
2015-Jul-02 00:08 223 0 gusting 2 11.7
2015-Jul-01 23:58 223 11.7
2015-Jul-01 23:48 223 11.7
2015-Jul-01 23:38 223 12.2
2015-Jul-01 23:28 223 12.2
2015-Jul-01 23:18 223 12.2
2015-Jul-01 23:08 223 0 gusting 2 12.2
2015-Jul-01 22:58 223 1 gusting 2 12.2
2015-Jul-01 22:48 223 0 gusting 2 12.2
2015-Jul-01 22:38 223 12.2
2015-Jul-01 22:28 223 12.2
2015-Jul-01 22:18 224 1 gusting 2 12.2
2015-Jul-01 22:08 224 12.2
2015-Jul-01 21:58 224 0 gusting 2 12.2
2015-Jul-01 21:48 224 12.8
2015-Jul-01 21:38 224 12.8
2015-Jul-01 21:28 224 12.8
2015-Jul-01 21:18 224 1 gusting 2 12.8
2015-Jul-01 21:08 224 12.8
2015-Jul-01 20:58 224 0 gusting 2 12.8
2015-Jul-01 20:48 224 12.8
2015-Jul-01 20:38 224 1 gusting 2 12.8
2015-Jul-01 20:28 224 12.8
2015-Jul-01 20:18 224 12.8
2015-Jul-01 20:08 224 12.8
2015-Jul-01 19:58 224 12.8
2015-Jul-01 19:48 224 0 gusting 1 12.8
2015-Jul-01 19:38 224 12.8
2015-Jul-01 19:28 224 12.8
2015-Jul-01 19:18 224 12.8
2015-Jul-01 19:08 224 13.3
2015-Jul-01 18:58 224 13.3
2015-Jul-01 18:48 224 13.3
2015-Jul-01 18:38 224 13.3
2015-Jul-01 18:28 224 13.3
2015-Jul-01 18:18 224 13.3
2015-Jul-01 18:08 224 13.3
2015-Jul-01 17:58 224 13.9
2015-Jul-01 17:48 224 13.9
2015-Jul-01 17:38 224 13.9
2015-Jul-01 17:28 224 13.9
2015-Jul-01 17:18 224 14.4
2015-Jul-01 17:08 224 0 gusting 2 14.4
2015-Jul-01 16:58 224 15.0
2015-Jul-01 16:48 224 14.4
2015-Jul-01 16:38 224 0 gusting 4 14.4
2015-Jul-01 16:28 224 14.4
2015-Jul-01 16:18 215 1 gusting 6 14.4
2015-Jul-01 16:08 203 0 gusting 2 15.0
2015-Jul-01 15:58 203 1 gusting 2 15.0
2015-Jul-01 15:48 203 15.6
2015-Jul-01 15:38 203 0 gusting 2 15.6
2015-Jul-01 15:28 203 15.6
2015-Jul-01 15:18 203 15.6
2015-Jul-01 15:08 203 15.0
2015-Jul-01 14:58 203 15.0
2015-Jul-01 14:48 203 15.0
2015-Jul-01 14:38 203 15.0
2015-Jul-01 14:28 203 15.0
2015-Jul-01 14:18 203 16.1
2015-Jul-01 14:08 203 0 gusting 4 16.1
2015-Jul-01 13:58 203 1 gusting 4 17.2
2015-Jul-01 13:48 203 2 gusting 5 16.7
2015-Jul-01 13:38 203 2 gusting 7 16.7
2015-Jul-01 13:28 227 4 gusting 6 17.8
2015-Jul-01 13:18 227 1 gusting 4 17.2
2015-Jul-01 13:08 227 0 gusting 4 16.7
2015-Jul-01 12:58 227 1 gusting 4 16.7
2015-Jul-01 12:48 227 0 gusting 2 17.2
2015-Jul-01 12:38 227 17.2
2015-Jul-01 12:28 227 16.7
2015-Jul-01 12:18 227 16.7
2015-Jul-01 12:08 227 16.7
2015-Jul-01 11:58 227 0 gusting 2 16.7
2015-Jul-01 11:48 227 1 gusting 2 16.7
2015-Jul-01 11:38 227 0 gusting 2 16.7
2015-Jul-01 11:28 227 0 gusting 2 16.7
2015-Jul-01 11:18 227 16.1
2015-Jul-01 11:08 227 1 gusting 4 16.1
2015-Jul-01 10:58 227 1 gusting 2 16.1
2015-Jul-01 10:48 227 0 gusting 2 16.1
2015-Jul-01 10:38 227 16.1
2015-Jul-01 10:28 227 0 gusting 2 15.6
2015-Jul-01 10:18 227 15.6
2015-Jul-01 10:08 227 0 gusting 2 15.6
2015-Jul-01 09:58 227 15.0
2015-Jul-01 09:48 227 14.4
2015-Jul-01 09:38 227 14.4
2015-Jul-01 09:28 227 0 gusting 2 13.9
2015-Jul-01 09:18 227 13.9
2015-Jul-01 09:08 227 13.9
2015-Jul-01 08:58 227 1 gusting 2 13.9
2015-Jul-01 08:48 227 0 gusting 2 13.9
2015-Jul-01 08:38 226 13.9
2015-Jul-01 08:28 227 13.9
2015-Jul-01 08:18 226 13.9
2015-Jul-01 08:08 227 1 gusting 2 13.9
2015-Jul-01 07:58 227 13.3
2015-Jul-01 07:48 227 0 gusting 1 13.3
2015-Jul-01 07:38 227 12.8
2015-Jul-01 07:28 227 0 gusting 2 12.8
2015-Jul-01 07:18 227 12.8
2015-Jul-01 07:08 227 12.2
2015-Jul-01 06:58 227 11.7
2015-Jul-01 06:48 226 2 gusting 2 11.7
2015-Jul-01 06:38 227 11.7
2015-Jul-01 06:28 227 11.7
2015-Jul-01 06:18 227 11.7
2015-Jul-01 06:08 227 11.1
2015-Jul-01 05:58 227 10.6
2015-Jul-01 05:48 227 10.0
2015-Jul-01 05:38 226 10.0
2015-Jul-01 05:28 227 10.0
2015-Jul-01 05:18 227 10.0
2015-Jul-01 05:08 226 1 gusting 2 9.4
2015-Jul-01 04:58 226 9.4
2015-Jul-01 04:48 227 9.4
2015-Jul-01 04:38 226 9.4
2015-Jul-01 04:28 227 9.4
2015-Jul-01 04:18 226 0 gusting 2 9.4
2015-Jul-01 04:08 226 9.4
2015-Jul-01 03:58 226 9.4
2015-Jul-01 03:48 227 9.4
2015-Jul-01 03:38 227 1 gusting 2 9.4
2015-Jul-01 03:28 227 0 gusting 2 9.4
2015-Jul-01 03:18 227 9.4
2015-Jul-01 03:08 227 9.4
2015-Jul-01 02:58 226 9.4
2015-Jul-01 02:48 227 8.9
2015-Jul-01 02:38 227 8.9
2015-Jul-01 02:28 227 8.9
2015-Jul-01 02:18 227 8.9
2015-Jul-01 02:08 227 8.9
2015-Jul-01 01:58 227 8.9
2015-Jul-01 01:48 227 8.9
2015-Jul-01 01:38 227 8.9
2015-Jul-01 01:28 227 8.9
2015-Jul-01 01:18 227 0 gusting 2 8.9
2015-Jul-01 01:08 231 8.9
2015-Jul-01 00:58 231 8.9
2015-Jul-01 00:48 231 8.9
2015-Jul-01 00:38 231 8.9
2015-Jul-01 00:28 231 0 gusting 4 8.9
2015-Jul-01 00:18 247 0 gusting 2 8.9
2015-Jul-01 00:08 247 8.9
2015-Jun-30 23:58 247 8.9
2015-Jun-30 23:48 247 8.9
2015-Jun-30 23:38 247 9.4
2015-Jun-30 23:28 247 9.4
2015-Jun-30 23:18 247 9.4
2015-Jun-30 23:08 247 9.4
2015-Jun-30 22:58 247 9.4
2015-Jun-30 22:48 247 9.4
2015-Jun-30 22:38 247 9.4
2015-Jun-30 22:18 247 9.4
2015-Jun-30 22:08 247 9.4
2015-Jun-30 21:58 247 9.4
2015-Jun-30 21:48 249 9.4
2015-Jun-30 21:38 249 9.4
2015-Jun-30 21:28 249 9.4
2015-Jun-30 21:18 249 0 gusting 2 9.4
2015-Jun-30 21:08 249 9.4
2015-Jun-30 20:58 249 9.4
2015-Jun-30 20:48 249 10.0
2015-Jun-30 20:38 249 10.0
2015-Jun-30 20:28 249 10.0
2015-Jun-30 20:18 249 10.6
2015-Jun-30 20:08 249 10.6
2015-Jun-30 19:58 249 0 gusting 2 10.6
2015-Jun-30 19:48 249 0 gusting 2 10.6
2015-Jun-30 19:38 249 11.1
2015-Jun-30 19:28 249 0 gusting 6 11.1
2015-Jun-30 19:18 252 2 gusting 7 11.1
2015-Jun-30 19:08 257 3 gusting 8 11.1
2015-Jun-30 18:58 244 1 gusting 8 11.1
2015-Jun-30 18:48 239 1 gusting 10 11.7
2015-Jun-30 18:38 261 2 gusting 10 11.7
2015-Jun-30 18:28 241 5 gusting 8 11.7
2015-Jun-30 18:18 251 3 gusting 10 12.2
2015-Jun-30 18:08 249 4 gusting 13 12.2
2015-Jun-30 17:58 236 2 gusting 10 12.2
2015-Jun-30 17:48 242 4 gusting 10 12.2
2015-Jun-30 17:38 245 1 gusting 13 12.8
2015-Jun-30 17:28 235 3 gusting 11 12.8
2015-Jun-30 17:18 246 4 gusting 10 13.3
2015-Jun-30 17:08 223 4 gusting 12 13.3
2015-Jun-30 16:58 244 5 gusting 12 12.8
2015-Jun-30 16:48 236 2 gusting 11 13.3
2015-Jun-30 16:38 243 2 gusting 13 13.9
2015-Jun-30 16:28 270 5 gusting 13 13.9
2015-Jun-30 16:18 229 3 gusting 11 13.9
2015-Jun-30 16:08 259 6 gusting 10 14.4